Location: Burgberg
(50.1428°N, 11.0671°E)
Time: 16:25:09
(UTC+00:00)

ATLAS 3B R/B - Pass Details

Date: 26 January 2020
Orbit: 1027 x 1168 km, 63.8° (Epoch: 09 February)

Event Time Altitude Azimuth Distance (km) Brightness Sun altitude
Exits shadow 03:07:43 49° 44° (NE) 1,338 3.3 -36.6°
Drops below altitude 10° 03:14:07 10° 111° (ESE) 2,925 5.5 -35.7°
Sets 03:16:55 0° 116° (ESE) 3,900 6.3 -35.2°
